Flag for Austria Weather past 2 weeks in Amstetten, Lower Austria, Austria

Now
61 °F

Cool.


Feels Like: 61 °F
Forecast: 54 / 80 °F
Wind: N/A

Location: Linz / Hoersching-Flughafen

Current Time: Jun 30, 2015 at 1:15:32 AM

Latest Report: Jun 30, 2015 at 12:00 AM


Visibility: 28 mi

Pressure: 30.18 "Hg

Humidity: 83%

Dew point: 56 °F

Location of AmstettenLocation

Historic Weather in Amstetten — Graph

°F

Amstetten temperature yesterday

Maximum temperature yesterday: 78 °F (at 6:00 PM)
Minimum temperature yesterday: 55 °F (at 2:00 AM)
Average temperature yesterday: 65 °F

Past Weeks' High & Low Weather Summary

 TemperatureHumidityPressure
High78 °F (Jun 29, 6:00 PM)98% (Jun 25, 5:00 AM)30.27 "Hg (Jun 25, 5:00 AM)
Low47 °F (Jun 25, 6:00 AM)36% (Jun 25, 3:00 PM)29.71 "Hg (Jun 14, 11:00 PM)
Average61 °F74%30.06 "Hg
* Reported Jun 14 11:00 PM — Jun 29 11:00 PM, Amstetten, Weather by CustomWeather, © 2015

Note: Actual official high and low records may vary slightly from our data, if they occured in-between our weather recording intervals... More about our weather records

Advertising

Amstetten weather history for previous 24 hours

 ConditionsComfort  
Time TempWeatherWind HumidityBarometerVisibility
11:00 PM
Mon, Jun 29
64 °FPassing clouds.N/A75%30.18 "Hg25 mi
10:00 PM66 °FPassing clouds.N/A68%30.16 "Hg31 mi
9:00 PM68 °FScattered clouds.5 mph62%30.14 "Hg28 mi
8:00 PM75 °FPassing clouds.N/A47%30.10 "Hg28 mi
7:00 PM77 °FPassing clouds.5 mph36%30.09 "Hg22 mi
6:00 PM78 °FPassing clouds.N/A43%30.09 "Hg31 mi
5:00 PM77 °FPassing clouds.3 mph40%30.10 "Hg18 mi
4:00 PM76 °FPassing clouds.N/A45%30.11 "Hg13 mi
3:00 PM75 °FScattered clouds.N/A47%30.13 "Hg11 mi
2:00 PM73 °FScattered clouds.N/A47%30.15 "Hg22 mi
1:00 PM71 °FScattered clouds.N/A53%30.16 "Hg19 mi
12:00 PM69 °FPartly sunny.N/A60%30.18 "Hg13 mi
11:00 AMN/APassing clouds.12 mphN/AN/A13 mi
10:00 AM62 °FPartly sunny.N/A76%30.21 "Hg16 mi
9:00 AM60 °FPartly sunny.N/A85%30.20 "Hg14 mi
8:00 AM59 °FOvercast.N/A80%30.20 "Hg19 mi
7:00 AM57 °FOvercast.N/A91%30.19 "Hg10 mi
6:00 AM55 °FPartly sunny.N/A95%30.18 "Hg7 mi
5:00 AM56 °FOvercast.N/A93%30.19 "Hg13 mi
4:00 AM56 °FOvercast.N/A95%30.18 "Hg7 mi
3:00 AM56 °FOvercast.N/A95%30.19 "Hg10 mi
2:00 AM55 °FPassing clouds.N/A96%30.18 "Hg7 mi
1:00 AM57 °FCool.N/A89%30.19 "Hg13 mi
Weather by CustomWeather, © 2015

See weather overviewHow to use our weather pages